Regional Weather Roundup
Issued by NWS

Home | Current Version | Previous Version | Text Only | Print | Product List | Glossary On
Versions: 1 2 3 4 5 6 7 8 9 10 11 12 13 14 15 16 17 18 19 20 21 22 23 24 25 26 27 28 29 30 31 32 33 34 35 36 37 38 39 40 41 42 43 44 45 46 47 48 49 50
000
ASUS43 KLOT 071508
RWRIL

ILLINOIS REGIONAL WEATHER ROUNDUP
NATIONAL WEATHER SERVICE CHICAGO/ROMEOVILLE IL
900 AM CST SUN FEB 07 2016

NOTE: "FAIR" INDICATES FEW OR NO CLOUDS BELOW 12,000 FEET WITH NO
SIGNIFICANT WEATHER AND/OR OBSTRUCTIONS TO VISIBILITY.

* THESE STATIONS ARE NOT UNDER NWS QUALITY CONTROL. THEY ALSO MAY NOT
  REPORT WEATHER SUCH AS PRECIPITATION OR FOG.

ILZ001-002-007-009-015-016-024-071600-
NORTHWEST ILLINOIS

CITY           SKY/WX    TMP DP  RH WIND       PRES   REMARKS
MOLINE         CLOUDY    39  28  64 SW18G26   29.81F WCI  30
STERLING*      CLOUDY    37  28  70 SW8       29.78F WCI  31
SAVANNA*       CLOUDY    39  30  71 SW12      29.79F WCI  31
$$

ILZ003-004-008-010-011-017-018-071600-
NORTH CENTRAL ILLINOIS

CITY           SKY/WX    TMP DP  RH WIND       PRES   REMARKS
ROCKFORD       CLOUDY    39  29  67 SW9G20    29.79F WCI  33
FREEPORT*      CLOUDY    36  30  79 SW16      29.78F WCI  26
ROCHELLE*      CLOUDY    37  31  79 SW16      29.80F WCI  27
DE KALB*       CLOUDY    36  31  81 SW15      29.80F WCI  27
PERU*          CLOUDY   -25 -33  66 SW17G23   29.83F WCI -53
$$

ILZ005-006-012>014-019>023-071600-
NORTHEAST ILLINOIS

CITY           SKY/WX    TMP DP  RH WIND       PRES   REMARKS
CHICAGO-OHARE  CLOUDY    39  29  67 SW17      29.81F WCI  30
CHICAGO-MIDWAY CLOUDY    41  28  60 SW15      29.83F
AURORA         CLOUDY    38  30  73 S12       29.82F WCI  30
LANSING*       MOSUNNY   38  31  75 SW15G21   29.86F WCI  29
JOLIET*        CLOUDY    40  31  71 SW8G20    29.85F
WAUKEGAN       CLOUDY    39  29  67 SW18G24   29.76F WCI  30
DUPAGE AIRPORT CLOUDY    38  28  67 SW20G25   29.80F WCI  28
KANKAKEE*      CLOUDY    38  30  73 SW17G25   29.87F WCI  29
WHEELING       CLOUDY    39  29  67 S14       29.81F WCI  31
MORRIS*        CLOUDY    38  31  77 SW12      29.82F WCI  30
ROMEOVILLE*    CLOUDY    38  29  71 SW18      29.83F WCI  28
NORTHERLY ISL    N/A     40  28  63 SW12        N/A
$$

LMZ740>746-071600-
SOUTHERN LAKE MICHIGAN

STATION/POSITION SKY/WX   TEMP    WIND        PRES    VSBY  WAVE
                          AIR SEA DIR/SP/G                  HT/PER
                          (F)     (DEG/KT/KT) (MB)    (MI)  (FT/S)
HARRISON CRIB              40     210/ 20/ 22   N/A
BURNHAM HARBOR             40     170/  9/ 15   N/A
CALUMET HARBOR             39     190/ 12/ 16 1010.2F
BURNS HARBOR               39     200/ 19/ 25 1011.5F
MICHIGAN CITY              39     160/ 16/ 20   N/A
$$

ILZ025>027-034>036-040-047-049-050-058-095>099-071600-
WEST-CENTRAL ILLINOIS

CITY           SKY/WX    TMP DP  RH WIND       PRES   REMARKS
QUINCY         MOSUNNY   40  27  59 SW17      29.90F
GALESBURG*     CLOUDY    38  31  74 SW12G18   29.84F WCI  31
MACOMB*        CLOUDY    39  30  71 SW17      29.89F WCI  30
JACKSONVILLE*  SUNNY     44  32  62 SW18      29.92F
PITTSFIELD*    MOSUNNY   42  29  58 SW15G23   29.92F
$$

ILZ028>032-037-038-041>044-048-051>054-059>061-071600-
CENTRAL ILLINOIS

CITY           SKY/WX    TMP DP  RH WIND       PRES   REMARKS
PONTIAC        CLOUDY    40  32  71 SW15G22   29.88S
BLOOMINGTON    SUNNY     40  31  70 SW17      29.90F
DECATUR        CLOUDY    41  27  57 SW15G22   29.94F
PEORIA         MOSUNNY   41  29  62 SW12      29.87F
LACON*         MOSUNNY   39  29  65 SW10      29.84F WCI  33
LINCOLN*       SUNNY     42  31  66 SW10G18   29.91F
SPRINGFIELD    MOSUNNY   41  28  60 SW10      29.93F
TAYLORVILLE    SUNNY     37  30  75 S15G21    29.95F WCI  28
$$

ILZ033-039-045-046-055>057-062-063-071600-
EAST-CENTRAL ILLINOIS

CITY           SKY/WX    TMP DP  RH WIND       PRES   REMARKS
CHAMPAIGN      CLOUDY    39  29  67 SW17      29.94F WCI  30
RANTOUL*       PTSUNNY   39  31  72 SW17      29.92F WCI  30
MATTOON        CLOUDY    40  26  57 S14       29.98S
PARIS*         MOSUNNY   40  30  65 S15       29.99F
$$

ILZ079-100>102-071600-
SOUTHWEST ILLINOIS

CITY           SKY/WX    TMP DP  RH WIND       PRES   REMARKS
ALTON          PTSUNNY   43  28  56 S14       29.99F
BELLEVILLE     SUNNY     42  28  57 S13       30.00F
CAHOKIA*       SUNNY     44  25  47 SW10G20   30.00F
SPARTA*        MOSUNNY   41  26  53 SW8       30.05F
$$

ILZ064>066-069>071-074>076-080>082-084>086-088>090-092>094-071600-
SOUTH-CENTRAL ILLINOIS

CITY           SKY/WX    TMP DP  RH WIND       PRES   REMARKS
CARBONDALE     SUNNY     43  23  45 SW12      30.09F
CAIRO*         SUNNY     41  29  62 SW7       30.14F
EFFINGHAM*     CLOUDY    44  30  58 S13       30.02F
MARION         PTSUNNY   45  25  45 S12       30.10F
MT. VERNON     SUNNY     41  27  56 SW15      30.06F
CENTRALIA*     SUNNY     44  30  57 SW16G22   30.03S
SALEM*         SUNNY     46  29  51 SW15G21   30.03S
METROPOLIS*    SUNNY     42  29  59 SW8       30.15S
$$

ILZ067-068-072-073-078-083-087-091-071600-
SOUTHEAST ILLINOIS

CITY           SKY/WX    TMP DP  RH WIND       PRES   REMARKS
LAWRENCEVILLE  SUNNY     42  27  55 SW16      30.07S
FLORA*         SUNNY     44  28  53 SW15      30.04F
FAIRFIELD*     SUNNY     41  29  62 S8        30.06F
HARRISBURG*    SUNNY     41  27  57 SW10      30.11F
ROBINSON*      SUNNY     42  27  55 SW13      30.06S
CARMI*         SUNNY     43  26  51 SW9       30.09F
$$

ABBREVIATIONS USED IN REMARKS
   TC - TEMPERATURE IN CELSIUS
  WCI - WIND CHILL INDEX
   HX - HEAT INDEX
  VSB - VISIBILITY
$$




USA.gov is the U.S. government's official web portal to all federal, state and local government web resources and services.